Location: ???????
(55.3754°N, 39.3545°E)
Time: 15:50:02
(UTC+00:00)

Cosmos 1908 Rocket - Pass Details

Date: 14 April 2026
Orbit: 599 x 625 km, 82.5° (Epoch: 17 May)

Event Time Altitude Azimuth Distance (km) Brightness Sun altitude
Exits shadow 18:51:57 38° 147° (SSE) 941 3.9 -17.8°
Maximum altitude 18:53:15 53° 96° (E) 756 3.7 -17.9°
Drops below altitude 10° 18:57:29 10° 20° (NNE) 1,966 6.5 -18.3°
Sets 18:59:44 0° 15° (NNE) 2,871 7.5 -18.5°
